Location: Winthrop
(48.4780°N, 120.1850°W)
Time: 18:25:38
(UTC-08:00)

Envisat - Pass Details

Date: 03 December 2022
Orbit: 763 x 765 km, 98.2° (Epoch: 05 February)

Event Time Altitude Azimuth Distance (km) Brightness Sun altitude
Rises 03:01:18 0° 27° (NNE) 3,244 6.7 -44.1°
Reaches altitude 10° 03:04:22 10° 46° (NE) 2,312 6.0 -43.6°
Enters shadow 03:04:25 10° 47° (NE) 2,298 6.0 -43.6°
